Volver al catálogo

DELTA 1 DEB

ActivoSSO
NORAD 21754·DEBRIS·🇺🇸 United States

Lanzado Jun 12, 1975 desde Vandenberg Space Force Base

Loading…

Próximos Pases (próximas 24 horas)

TLE

ActualizadoSource: Space-Track

Época: Sep 14, 2026, 14:04 UTC

1 21754U 75052JQ  26257.58633293  .00000116  00000-0  30932-3 0  9997
2 21754 100.0475 180.1198 0076268 107.1432  66.1383 13.35347834709221

Sigue DELTA 1 DEB en tiempo real con AllMySat

Download on the App Store